Location: Nag� el Ma?a??a
(24.0667°N, 32.8833°E)
Time: 15:13:15
(UTC+00:00)

N. Korean satellite - Pass Details

Date: 06 December 2022
Orbit: 407 x 444 km, 97.3° (Epoch: 28 January)

Event Time Altitude Azimuth Distance (km) Brightness Sun altitude
Rises 03:51:15 0° 342° (NNW) 2,471 9.8 -6.4°
Reaches altitude 10° 03:54:33 10° 307° (NW) 1,580 8.5 -5.7°
Maximum altitude 03:55:39 11° 288° (WNW) 1,495 8.4 -5.5°
Drops below altitude 10° 03:56:45 10° 269° (W) 1,567 8.6 -5.3°
Sets 03:59:59 0° 233° (SW) 2,416 9.8 -4.6°
